Regional Weather Roundup
Issued by NWS

Home | Current Version | Previous Version | Text Only | Print | Product List | Glossary Off
Versions: 1 2 3 4 5 6 7 8 9 10 11 12 13 14 15 16 17 18 19 20 21 22 23 24 25 26 27 28 29 30 31 32 33 34 35 36 37 38 39 40 41 42 43 44 45 46 47 48 49 50

000
ASUS43 KFSD 230810
RWRSD

WEATHER ROUNDUP FOR SOUTH DAKOTA
NATIONAL WEATHER SERVICE SIOUX FALLS SD
200 AM CST FRI FEB 23 2018

NOTE: "FAIR" INDICATES FEW OR NO CLOUDS BELOW 12,000 FEET WITH NO
SIGNIFICANT WEATHER AND/OR OBSTRUCTIONS TO VISIBILITY.


SDZ001>005-009-010-012>017-230900-
NORTHWEST AND NORTH CENTRAL SOUTH DAKOTA

CITY           SKY/WX    TMP DP  RH WIND       PRES   REMARKS
BUFFALO          N/A      2  -5  72 SW6       30.07R WCI  -9
FAITH            N/A      4   1  88 NW14      30.12S WCI -14
MOBRIDGE       CLOUDY    17  13  84 NW10      30.12S FOG     WCI   5
$$

SDZ012>016-024>037-041>051-057-063-072>074-230900-
SOUTHWEST AND SOUTH CENTRAL SOUTH DAKOTA

CITY           SKY/WX    TMP DP  RH WIND       PRES   REMARKS
RAPID CTY ARPT CLEAR      2  -4  76 NW13      30.11R WCI -15
PIERRE         CLOUDY    10   8  92 W10       30.16R WCI  -4
CUSTER         CLEAR      6  -3  66 NW3       29.97R
ELLSWORTH AFB  CLEAR     12   1  61 NW16      30.09S WCI  -5
PHILIP         CLEAR      1  -2  87 W6        30.17R WCI -10
PINE RIDGE     FOG        5   4  95 VRB5      30.14R VSB 3/4 WCI  -4
SPEARFISH        N/A      5  -4  66 W7        30.10S WCI  -7
WINNER         CLOUDY    17  14  88 NW16      30.14R WCI   2
$$

SDZ004>011-016>023-039-040-230900-
NORTHEAST SOUTH DAKOTA

CITY           SKY/WX    TMP DP  RH WIND       PRES   REMARKS
ABERDEEN       LGT SNOW  20  18  92 NW5       30.12F FOG     WCI  13
WATERTOWN      CLOUDY    17  17 100 NW6       30.06F FOG     WCI   9
BROOKINGS      LGT SNOW  17  15  92 W7        30.08S FOG     WCI   8
SISSETON         N/A     19  18  95 NW6       30.11F WCI  11
$$

SDZ017-020-022-023-036>040-048>070-230900-
SOUTHEAST SOUTH DAKOTA

CITY           SKY/WX    TMP DP  RH WIND       PRES   REMARKS
SIOUX FALLS    CLOUDY    21  20  96 W10       30.10S FOG     WCI  10
HURON          FOG        7   6  96 W8        30.13S VSB 1/4 WCI  -6
CHAMBERLAIN    FOG       14  12  95 W5        30.14S VSB 1/4 WCI   6
MITCHELL       FOG       17  16  95 W5        30.14S VSB 3/4 WCI  10
YANKTON        PTCLDY    20  18  92 SW6       30.14S WCI  12
$$

ABBREVIATIONS USED IN REMARKS
   TC - TEMPERATURE IN CELSIUS
  WCI - WIND CHILL INDEX
   HX - HEAT INDEX
  VSB - VISIBILITY





USA.gov is the U.S. government's official web portal to all federal, state and local government web resources and services.